Wetterdaten: Samstag, 07.02.2015
Datum Zeit Temperatur Luftfeuchte Luftdruck Regen Wind Richtung Richtung Sonnenschein ET UV Solar Taupunkt Windchill Windben
07.02.2015 00:00 -3,7 C 77 % 1029,2 hPa 0,0 l/m 6,2 km/h (2 Bft) NO 47 0 min 0,000 mm 0,0 UV-I 0 W/m -7,1 C -3,7 C 22,5 km/h (4 Bft)
07.02.2015 00:05 -3,7 C 77 % 1029,3 hPa 0,0 l/m 5,1 km/h (1 Bft) O-NO 78 0 min 0,000 mm 0,0 UV-I 0 W/m -7,1 C -3,7 C 14,5 km/h (3 Bft)
07.02.2015 00:10 -3,7 C 77 % 1029,3 hPa 0,0 l/m 6,6 km/h (2 Bft) O-NO 69 0 min 0,000 mm 0,0 UV-I 0 W/m -7,1 C -3,9 C 16,1 km/h (3 Bft)
07.02.2015 00:15 -3,7 C 77 % 1029,3 hPa 0,0 l/m 5,7 km/h (1 Bft) O-NO 62 0 min 0,000 mm 0,0 UV-I 0 W/m -7,1 C -3,7 C 14,5 km/h (3 Bft)
07.02.2015 00:20 -3,7 C 77 % 1029,4 hPa 0,0 l/m 9,4 km/h (2 Bft) NO 54 0 min 0,000 mm 0,0 UV-I 0 W/m -7,1 C -7,0 C 17,7 km/h (3 Bft)
07.02.2015 00:25 -3,7 C 77 % 1029,4 hPa 0,0 l/m 6,8 km/h (2 Bft) O 82 0 min 0,000 mm 0,0 UV-I 0 W/m -7,1 C -4,1 C 17,7 km/h (3 Bft)
07.02.2015 00:30 -3,6 C 76 % 1029,4 hPa 0,0 l/m 6,7 km/h (2 Bft) O-NO 65 0 min 0,000 mm 0,0 UV-I 0 W/m -7,2 C -3,9 C 24,1 km/h (4 Bft)
07.02.2015 00:35 -3,6 C 76 % 1029,4 hPa 0,0 l/m 5,1 km/h (1 Bft) O-NO 59 0 min 0,000 mm 0,0 UV-I 0 W/m -7,2 C -3,6 C 12,9 km/h (3 Bft)
07.02.2015 00:40 -3,6 C 76 % 1029,4 hPa 0,0 l/m 3,7 km/h (1 Bft) O 82 0 min 0,000 mm 0,0 UV-I 0 W/m -7,2 C -3,6 C 12,9 km/h (3 Bft)
07.02.2015 00:45 -3,6 C 76 % 1029,5 hPa 0,0 l/m 1,9 km/h (1 Bft) O-NO 78 0 min 0,000 mm 0,0 UV-I 0 W/m -7,2 C -3,6 C 8,0 km/h (2 Bft)
07.02.2015 00:50 -3,6 C 76 % 1029,5 hPa 0,0 l/m 1,3 km/h (1 Bft) O 101 0 min 0,000 mm 0,0 UV-I 0 W/m -7,2 C -3,6 C 8,0 km/h (2 Bft)
07.02.2015 00:55 -3,7 C 76 % 1029,5 hPa 0,0 l/m 2,5 km/h (1 Bft) O 96 0 min 0,000 mm 0,0 UV-I 0 W/m -7,3 C -3,7 C 11,3 km/h (2 Bft)
07.02.2015 01:00 -3,7 C 76 % 1029,5 hPa 0,0 l/m 2,6 km/h (1 Bft) O-NO 74 0 min 0,000 mm 0,0 UV-I 0 W/m -7,3 C -3,7 C 8,0 km/h (2 Bft)
07.02.2015 01:05 -3,8 C 76 % 1029,6 hPa 0,0 l/m 4,4 km/h (1 Bft) NO 44 0 min 0,025 mm 0,0 UV-I 0 W/m -7,4 C -3,8 C 14,5 km/h (3 Bft)
07.02.2015 01:10 -3,8 C 76 % 1029,6 hPa 0,0 l/m 3,6 km/h (1 Bft) O 89 0 min 0,000 mm 0,0 UV-I 0 W/m -7,4 C -3,8 C 12,9 km/h (3 Bft)
07.02.2015 01:15 -3,8 C 76 % 1029,6 hPa 0,0 l/m 4,0 km/h (1 Bft) NO 52 0 min 0,000 mm 0,0 UV-I 0 W/m -7,4 C -3,8 C 16,1 km/h (3 Bft)
07.02.2015 01:20 -3,9 C 77 % 1029,6 hPa 0,0 l/m 1,8 km/h (1 Bft) O 79 0 min 0,000 mm 0,0 UV-I 0 W/m -7,3 C -3,9 C 8,0 km/h (2 Bft)
07.02.2015 01:25 -3,9 C 77 % 1029,6 hPa 0,0 l/m 1,9 km/h (1 Bft) NO 51 0 min 0,000 mm 0,0 UV-I 0 W/m -7,3 C -3,9 C 6,4 km/h (2 Bft)
07.02.2015 01:30 -3,9 C 77 % 1029,7 hPa 0,0 l/m 3,8 km/h (1 Bft) O-SO 108 0 min 0,000 mm 0,0 UV-I 0 W/m -7,3 C -3,9 C 12,9 km/h (3 Bft)
07.02.2015 01:35 -3,9 C 77 % 1029,7 hPa 0,0 l/m 2,8 km/h (1 Bft) O-SO 121 0 min 0,000 mm 0,0 UV-I 0 W/m -7,3 C -3,9 C 8,0 km/h (2 Bft)
07.02.2015 01:40 -3,9 C 77 % 1029,9 hPa 0,0 l/m 3,9 km/h (1 Bft) O 98 0 min 0,000 mm 0,0 UV-I 0 W/m -7,3 C -3,9 C 8,0 km/h (2 Bft)
07.02.2015 01:45 -4,0 C 78 % 1029,9 hPa 0,0 l/m 2,9 km/h (1 Bft) O-NO 68 0 min 0,000 mm 0,0 UV-I 0 W/m -7,3 C -4,0 C 11,3 km/h (2 Bft)
07.02.2015 01:50 -4,1 C 78 % 1029,9 hPa 0,0 l/m 5,2 km/h (1 Bft) NO 55 0 min 0,000 mm 0,0 UV-I 0 W/m -7,4 C -4,1 C 14,5 km/h (3 Bft)
07.02.2015 01:55 -4,1 C 78 % 1030,0 hPa 0,0 l/m 4,2 km/h (1 Bft) O-NO 57 0 min 0,000 mm 0,0 UV-I 0 W/m -7,4 C -4,1 C 11,3 km/h (2 Bft)
07.02.2015 02:00 -4,2 C 78 % 1030,0 hPa 0,0 l/m 5,4 km/h (1 Bft) NO 55 0 min 0,000 mm 0,0 UV-I 0 W/m -7,4 C -4,2 C 14,5 km/h (3 Bft)
07.02.2015 02:05 -4,2 C 78 % 1030,1 hPa 0,0 l/m 4,1 km/h (1 Bft) NO 42 0 min 0,000 mm 0,0 UV-I 0 W/m -7,4 C -4,2 C 11,3 km/h (2 Bft)
07.02.2015 02:10 -4,2 C 78 % 1030,1 hPa 0,0 l/m 3,6 km/h (1 Bft) NO 49 0 min 0,000 mm 0,0 UV-I 0 W/m -7,4 C -4,2 C 14,5 km/h (3 Bft)
07.02.2015 02:15 -4,2 C 78 % 1030,2 hPa 0,0 l/m 3,5 km/h (1 Bft) O 84 0 min 0,000 mm 0,0 UV-I 0 W/m -7,4 C -4,2 C 14,5 km/h (3 Bft)
07.02.2015 02:20 -4,2 C 78 % 1030,3 hPa 0,0 l/m 3,0 km/h (1 Bft) O 100 0 min 0,000 mm 0,0 UV-I 0 W/m -7,4 C -4,2 C 11,3 km/h (2 Bft)
07.02.2015 02:25 -4,3 C 79 % 1030,3 hPa 0,0 l/m 1,2 km/h (1 Bft) NO 42 0 min 0,000 mm 0,0 UV-I 0 W/m -7,4 C -4,3 C 3,2 km/h (1 Bft)
07.02.2015 02:30 -4,3 C 79 % 1030,3 hPa 0,0 l/m 1,3 km/h (1 Bft) NO 53 0 min 0,000 mm 0,0 UV-I 0 W/m -7,4 C -4,3 C 8,0 km/h (2 Bft)
07.02.2015 02:35 -4,2 C 78 % 1030,4 hPa 0,0 l/m 1,4 km/h (1 Bft) O 85 0 min 0,000 mm 0,0 UV-I 0 W/m -7,4 C -4,2 C 6,4 km/h (2 Bft)
07.02.2015 02:40 -4,2 C 78 % 1030,3 hPa 0,0 l/m 3,0 km/h (1 Bft) O-NO 58 0 min 0,000 mm 0,0 UV-I 0 W/m -7,4 C -4,2 C 8,0 km/h (2 Bft)
07.02.2015 02:45 -4,2 C 78 % 1030,4 hPa 0,0 l/m 1,2 km/h (1 Bft) O-NO 67 0 min 0,000 mm 0,0 UV-I 0 W/m -7,4 C -4,2 C 8,0 km/h (2 Bft)
07.02.2015 02:50 -4,3 C 78 % 1030,4 hPa 0,0 l/m 0,1 km/h (0 Bft) O-NO 70 0 min 0,000 mm 0,0 UV-I 0 W/m -7,5 C -4,3 C 4,8 km/h (1 Bft)
07.02.2015 02:55 -4,3 C 78 % 1030,4 hPa 0,0 l/m 2,0 km/h (1 Bft) O-NO 74 0 min 0,000 mm 0,0 UV-I 0 W/m -7,5 C -4,3 C 6,4 km/h (2 Bft)
07.02.2015 03:00 -4,4 C 78 % 1030,4 hPa 0,0 l/m 0,1 km/h (0 Bft) O-NO 76 0 min 0,000 mm 0,0 UV-I 0 W/m -7,6 C -4,4 C 1,6 km/h (1 Bft)
07.02.2015 03:05 -4,4 C 79 % 1030,5 hPa 0,0 l/m 0,1 km/h (0 Bft) O 98 0 min 0,000 mm 0,0 UV-I 0 W/m -7,5 C -4,4 C 1,6 km/h (1 Bft)
07.02.2015 03:10 -4,4 C 79 % 1030,5 hPa 0,0 l/m 0,3 km/h (0 Bft) O-SO 105 0 min 0,000 mm 0,0 UV-I 0 W/m -7,5 C -4,4 C 3,2 km/h (1 Bft)
07.02.2015 03:15 -4,4 C 79 % 1030,5 hPa 0,0 l/m 0,2 km/h (0 Bft) O 97 0 min 0,000 mm 0,0 UV-I 0 W/m -7,5 C -4,4 C 3,2 km/h (1 Bft)
07.02.2015 03:20 -4,5 C 79 % 1030,6 hPa 0,0 l/m 0,7 km/h (0 Bft) O 101 0 min 0,000 mm 0,0 UV-I 0 W/m -7,6 C -4,5 C 4,8 km/h (1 Bft)
07.02.2015 03:25 -4,5 C 79 % 1030,6 hPa 0,0 l/m 0,6 km/h (0 Bft) O 101 0 min 0,000 mm 0,0 UV-I 0 W/m -7,6 C -4,5 C 6,4 km/h (2 Bft)
07.02.2015 03:30 -4,6 C 79 % 1030,6 hPa 0,0 l/m 0,0 km/h (0 Bft) O 101 0 min 0,000 mm 0,0 UV-I 0 W/m -7,7 C -4,6 C 1,6 km/h (1 Bft)
07.02.2015 03:35 -4,7 C 79 % 1030,6 hPa 0,0 l/m 0,5 km/h (0 Bft) O 101 0 min 0,000 mm 0,0 UV-I 0 W/m -7,8 C -4,7 C 4,8 km/h (1 Bft)
07.02.2015 03:40 -4,8 C 79 % 1030,6 hPa 0,0 l/m 0,5 km/h (0 Bft) O 91 0 min 0,000 mm 0,0 UV-I 0 W/m -7,9 C -4,8 C 3,2 km/h (1 Bft)
07.02.2015 03:45 -4,8 C 80 % 1030,6 hPa 0,0 l/m 0,8 km/h (0 Bft) O 85 0 min 0,000 mm 0,0 UV-I 0 W/m -7,7 C -4,8 C 3,2 km/h (1 Bft)
07.02.2015 03:50 -4,7 C 79 % 1030,6 hPa 0,0 l/m 0,6 km/h (0 Bft) O 85 0 min 0,000 mm 0,0 UV-I 0 W/m -7,8 C -4,7 C 3,2 km/h (1 Bft)
07.02.2015 03:55 -4,6 C 79 % 1030,6 hPa 0,0 l/m 0,8 km/h (0 Bft) O-SO 105 0 min 0,000 mm 0,0 UV-I 0 W/m -7,7 C -4,6 C 4,8 km/h (1 Bft)
07.02.2015 04:00 -4,6 C 79 % 1030,6 hPa 0,0 l/m 0,4 km/h (0 Bft) O-SO 105 0 min 0,000 mm 0,0 UV-I 0 W/m -7,7 C -4,6 C 1,6 km/h (1 Bft)
07.02.2015 04:05 -4,6 C 79 % 1030,5 hPa 0,0 l/m 0,6 km/h (0 Bft) O-SO 104 0 min 0,000 mm 0,0 UV-I 0 W/m -7,7 C -4,6 C 3,2 km/h (1 Bft)
07.02.2015 04:10 -4,7 C 79 % 1030,5 hPa 0,0 l/m 0,3 km/h (0 Bft) O-SO 104 0 min 0,000 mm 0,0 UV-I 0 W/m -7,8 C -4,7 C 1,6 km/h (1 Bft)
07.02.2015 04:15 -4,9 C 79 % 1030,5 hPa 0,0 l/m 0,1 km/h (0 Bft) O-NO 61 0 min 0,000 mm 0,0 UV-I 0 W/m -8,0 C -4,9 C 1,6 km/h (1 Bft)
07.02.2015 04:20 -5,1 C 79 % 1030,5 hPa 0,0 l/m 0,0 km/h (0 Bft) O-NO 61 0 min 0,000 mm 0,0 UV-I 0 W/m -8,2 C -5,1 C 0,0 km/h (0 Bft)
07.02.2015 04:25 -5,3 C 80 % 1030,5 hPa 0,0 l/m 0,0 km/h (0 Bft) O-NO 61 0 min 0,000 mm 0,0 UV-I 0 W/m -8,2 C -5,3 C 0,0 km/h (0 Bft)
07.02.2015 04:30 -5,6 C 80 % 1030,5 hPa 0,0 l/m 0,0 km/h (0 Bft) O-NO 61 0 min 0,000 mm 0,0 UV-I 0 W/m -8,5 C -5,6 C 0,0 km/h (0 Bft)
07.02.2015 04:35 -5,7 C 81 % 1030,4 hPa 0,0 l/m 0,0 km/h (0 Bft) O-NO 61 0 min 0,000 mm 0,0 UV-I 0 W/m -8,4 C -5,7 C 1,6 km/h (1 Bft)
07.02.2015 04:40 -5,8 C 81 % 1030,5 hPa 0,0 l/m 0,0 km/h (0 Bft) O-NO 61 0 min 0,000 mm 0,0 UV-I 0 W/m -8,5 C -5,8 C 0,0 km/h (0 Bft)
07.02.2015 04:45 -5,8 C 82 % 1030,5 hPa 0,0 l/m 0,0 km/h (0 Bft) O-NO 61 0 min 0,000 mm 0,0 UV-I 0 W/m -8,4 C -5,8 C 0,0 km/h (0 Bft)
07.02.2015 04:50 -5,9 C 82 % 1030,5 hPa 0,0 l/m 0,0 km/h (0 Bft) O-NO 61 0 min 0,000 mm 0,0 UV-I 0 W/m -8,5 C -5,9 C 0,0 km/h (0 Bft)
07.02.2015 04:55 -6,2 C 83 % 1030,5 hPa 0,0 l/m 0,0 km/h (0 Bft) O-NO 61 0 min 0,000 mm 0,0 UV-I 0 W/m -8,6 C -6,2 C 0,0 km/h (0 Bft)
07.02.2015 05:00 -6,3 C 83 % 1030,5 hPa 0,0 l/m 0,0 km/h (0 Bft) O-NO 61 0 min 0,000 mm 0,0 UV-I 0 W/m -8,7 C -6,3 C 0,0 km/h (0 Bft)
07.02.2015 05:05 -6,3 C 83 % 1030,5 hPa 0,0 l/m 0,0 km/h (0 Bft) O-NO 61 0 min 0,000 mm 0,0 UV-I 0 W/m -8,7 C -6,3 C 0,0 km/h (0 Bft)
07.02.2015 05:10 -6,4 C 84 % 1030,5 hPa 0,0 l/m 0,0 km/h (0 Bft) O-NO 61 0 min 0,000 mm 0,0 UV-I 0 W/m -8,6 C -6,4 C 0,0 km/h (0 Bft)
07.02.2015 05:15 -6,5 C 85 % 1030,6 hPa 0,0 l/m 0,0 km/h (0 Bft) O-NO 61 0 min 0,000 mm 0,0 UV-I 0 W/m -8,6 C -6,5 C 0,0 km/h (0 Bft)
07.02.2015 05:20 -6,6 C 85 % 1030,5 hPa 0,0 l/m 0,0 km/h (0 Bft) O-NO 61 0 min 0,000 mm 0,0 UV-I 0 W/m -8,7 C -6,6 C 0,0 km/h (0 Bft)
07.02.2015 05:25 -6,7 C 85 % 1030,5 hPa 0,0 l/m 0,0 km/h (0 Bft) O-NO 61 0 min 0,000 mm 0,0 UV-I 0 W/m -8,8 C -6,7 C 0,0 km/h (0 Bft)
07.02.2015 05:30 -6,7 C 85 % 1030,5 hPa 0,0 l/m 0,0 km/h (0 Bft) O-NO 61 0 min 0,000 mm 0,0 UV-I 0 W/m -8,8 C -6,7 C 0,0 km/h (0 Bft)
07.02.2015 05:35 -6,7 C 85 % 1030,5 hPa 0,0 l/m 0,0 km/h (0 Bft) O-NO 61 0 min 0,000 mm 0,0 UV-I 0 W/m -8,8 C -6,7 C 0,0 km/h (0 Bft)
07.02.2015 05:40 -6,6 C 85 % 1030,6 hPa 0,0 l/m 0,0 km/h (0 Bft) O-NO 61 0 min 0,000 mm 0,0 UV-I 0 W/m -8,7 C -6,6 C 0,0 km/h (0 Bft)
07.02.2015 05:45 -6,5 C 86 % 1030,6 hPa 0,0 l/m 0,1 km/h (0 Bft) O-NO 61 0 min 0,000 mm 0,0 UV-I 0 W/m -8,4 C -6,5 C 1,6 km/h (1 Bft)
07.02.2015 05:50 -6,4 C 85 % 1030,6 hPa 0,0 l/m 0,0 km/h (0 Bft) O-NO 61 0 min 0,000 mm 0,0 UV-I 0 W/m -8,5 C -6,4 C 0,0 km/h (0 Bft)
07.02.2015 05:55 -6,6 C 85 % 1030,5 hPa 0,0 l/m 0,0 km/h (0 Bft) O-NO 61 0 min 0,000 mm 0,0 UV-I 0 W/m -8,7 C -6,6 C 0,0 km/h (0 Bft)
07.02.2015 06:00 -6,7 C 85 % 1030,4 hPa 0,0 l/m 0,0 km/h (0 Bft) O-NO 61 0 min 0,000 mm 0,0 UV-I 0 W/m -8,8 C -6,7 C 0,0 km/h (0 Bft)
07.02.2015 06:05 -6,7 C 85 % 1030,3 hPa 0,0 l/m 0,0 km/h (0 Bft) O-NO 61 0 min 0,000 mm 0,0 UV-I 0 W/m -8,8 C -6,7 C 0,0 km/h (0 Bft)
07.02.2015 06:10 -6,8 C 86 % 1030,3 hPa 0,0 l/m 0,0 km/h (0 Bft) O-NO 61 0 min 0,000 mm 0,0 UV-I 0 W/m -8,7 C -6,8 C 0,0 km/h (0 Bft)
07.02.2015 06:15 -6,8 C 86 % 1030,5 hPa 0,0 l/m 0,2 km/h (0 Bft) SW 217 0 min 0,000 mm 0,0 UV-I 0 W/m -8,7 C -6,8 C 1,6 km/h (1 Bft)
07.02.2015 06:20 -6,9 C 85 % 1030,5 hPa 0,0 l/m 0,5 km/h (0 Bft) SW 223 0 min 0,000 mm 0,0 UV-I 0 W/m -9,0 C -6,9 C 4,8 km/h (1 Bft)
07.02.2015 06:25 -7,0 C 86 % 1030,6 hPa 0,0 l/m 0,6 km/h (0 Bft) SW 227 0 min 0,000 mm 0,0 UV-I 0 W/m -8,9 C -7,0 C 4,8 km/h (1 Bft)
07.02.2015 06:30 -7,1 C 86 % 1030,6 hPa 0,0 l/m 0,0 km/h (0 Bft) SW 227 0 min 0,000 mm 0,0 UV-I 0 W/m -9,0 C -7,1 C 0,0 km/h (0 Bft)
07.02.2015 06:35 -7,1 C 86 % 1030,5 hPa 0,0 l/m 0,0 km/h (0 Bft) SW 227 0 min 0,000 mm 0,0 UV-I 0 W/m -9,0 C -7,1 C 0,0 km/h (0 Bft)
07.02.2015 06:40 -7,1 C 86 % 1030,6 hPa 0,0 l/m 0,0 km/h (0 Bft) SW 227 0 min 0,000 mm 0,0 UV-I 0 W/m -9,0 C -7,1 C 0,0 km/h (0 Bft)
07.02.2015 06:45 -7,1 C 87 % 1030,7 hPa 0,0 l/m 0,0 km/h (0 Bft) SW 227 0 min 0,000 mm 0,0 UV-I 0 W/m -8,9 C -7,1 C 0,0 km/h (0 Bft)
07.02.2015 06:50 -7,2 C 86 % 1030,7 hPa 0,0 l/m 0,0 km/h (0 Bft) SW 227 0 min 0,000 mm 0,0 UV-I 0 W/m -9,1 C -7,2 C 0,0 km/h (0 Bft)
07.02.2015 06:55 -7,2 C 86 % 1030,7 hPa 0,0 l/m 0,0 km/h (0 Bft) SW 227 0 min 0,000 mm 0,0 UV-I 0 W/m -9,1 C -7,2 C 0,0 km/h (0 Bft)
07.02.2015 07:00 -7,3 C 86 % 1030,6 hPa 0,0 l/m 0,0 km/h (0 Bft) SW 227 0 min 0,000 mm 0,0 UV-I 0 W/m -9,2 C -7,3 C 0,0 km/h (0 Bft)
07.02.2015 07:05 -7,4 C 86 % 1030,7 hPa 0,0 l/m 0,0 km/h (0 Bft) SW 227 0 min 0,000 mm 0,0 UV-I 0 W/m -9,3 C -7,4 C 0,0 km/h (0 Bft)
07.02.2015 07:10 -7,4 C 87 % 1030,8 hPa 0,0 l/m 0,0 km/h (0 Bft) SW 227 0 min 0,000 mm 0,0 UV-I 0 W/m -9,2 C -7,4 C 0,0 km/h (0 Bft)
07.02.2015 07:15 -7,4 C 87 % 1030,8 hPa 0,0 l/m 0,0 km/h (0 Bft) SW 227 0 min 0,000 mm 0,0 UV-I 0 W/m -9,2 C -7,4 C 0,0 km/h (0 Bft)
07.02.2015 07:20 -7,6 C 87 % 1030,8 hPa 0,0 l/m 0,0 km/h (0 Bft) SW 227 0 min 0,000 mm 0,0 UV-I 0 W/m -9,4 C -7,6 C 0,0 km/h (0 Bft)
07.02.2015 07:25 -7,6 C 87 % 1030,8 hPa 0,0 l/m 0,0 km/h (0 Bft) SW 227 0 min 0,000 mm 0,0 UV-I 0 W/m -9,4 C -7,6 C 0,0 km/h (0 Bft)
07.02.2015 07:30 -7,6 C 88 % 1030,8 hPa 0,0 l/m 0,5 km/h (0 Bft) SW 227 0 min 0,000 mm 0,0 UV-I 0 W/m -9,2 C -7,6 C 3,2 km/h (1 Bft)
07.02.2015 07:35 -7,7 C 88 % 1030,9 hPa 0,0 l/m 0,7 km/h (0 Bft) SW 227 0 min 0,000 mm 0,0 UV-I 0 W/m -9,3 C -7,7 C 3,2 km/h (1 Bft)
07.02.2015 07:40 -7,8 C 88 % 1030,8 hPa 0,0 l/m 0,0 km/h (0 Bft) SW 227 0 min 0,000 mm 0,0 UV-I 0 W/m -9,4 C -7,8 C 0,0 km/h (0 Bft)
07.02.2015 07:45 -7,8 C 87 % 1030,8 hPa 0,0 l/m 0,0 km/h (0 Bft) SW 227 0 min 0,000 mm 0,0 UV-I 0 W/m -9,6 C -7,8 C 0,0 km/h (0 Bft)
07.02.2015 07:50 -7,8 C 88 % 1030,7 hPa 0,0 l/m 0,8 km/h (0 Bft) SW 227 0 min 0,000 mm 0,0 UV-I 0 W/m -9,4 C -7,8 C 3,2 km/h (1 Bft)
07.02.2015 07:55 -7,8 C 89 % 1030,5 hPa 0,0 l/m 1,0 km/h (0 Bft) W-SW 257 0 min 0,000 mm 0,0 UV-I 1 W/m -9,3 C -7,8 C 3,2 km/h (1 Bft)
07.02.2015 08:00 -7,8 C 88 % 1030,3 hPa 0,0 l/m 0,2 km/h (0 Bft) W-SW 257 0 min 0,000 mm 0,0 UV-I 5 W/m -9,4 C -7,8 C 1,6 km/h (1 Bft)
07.02.2015 08:05 -7,8 C 88 % 1030,4 hPa 0,0 l/m 0,1 km/h (0 Bft) W-SW 257 0 min 0,000 mm 0,0 UV-I 6 W/m -9,4 C -7,8 C 1,6 km/h (1 Bft)
07.02.2015 08:10 -7,8 C 88 % 1030,5 hPa 0,0 l/m 0,0 km/h (0 Bft) W-SW 257 0 min 0,000 mm 0,0 UV-I 9 W/m -9,4 C -7,8 C 0,0 km/h (0 Bft)
07.02.2015 08:15 -7,7 C 89 % 1030,6 hPa 0,0 l/m 0,2 km/h (0 Bft) W-SW 257 0 min 0,000 mm 0,0 UV-I 11 W/m -9,2 C -7,7 C 1,6 km/h (1 Bft)
07.02.2015 08:20 -7,6 C 89 % 1030,7 hPa 0,0 l/m 0,0 km/h (0 Bft) W-SW 257 0 min 0,000 mm 0,0 UV-I 18 W/m -9,1 C -7,6 C 0,0 km/h (0 Bft)
07.02.2015 08:25 -7,4 C 89 % 1030,8 hPa 0,0 l/m 0,0 km/h (0 Bft) W-SW 257 0 min 0,000 mm 0,0 UV-I 23 W/m -8,9 C -7,4 C 0,0 km/h (0 Bft)
07.02.2015 08:30 -7,2 C 88 % 1030,7 hPa 0,0 l/m 0,0 km/h (0 Bft) W-SW 257 0 min 0,000 mm 0,0 UV-I 35 W/m -8,8 C -7,2 C 0,0 km/h (0 Bft)
07.02.2015 08:35 -7,0 C 88 % 1030,8 hPa 0,0 l/m 0,0 km/h (0 Bft) W-SW 257 0 min 0,000 mm 0,0 UV-I 49 W/m -8,6 C -7,0 C 1,6 km/h (1 Bft)
07.02.2015 08:40 -6,8 C 87 % 1030,8 hPa 0,0 l/m 0,0 km/h (0 Bft) W-SW 257 5 min 0,000 mm 0,0 UV-I 58 W/m -8,6 C -6,8 C 1,6 km/h (1 Bft)
07.02.2015 08:45 -6,7 C 86 % 1030,9 hPa 0,0 l/m 0,7 km/h (0 Bft) W 269 5 min 0,000 mm 0,0 UV-I 70 W/m -8,6 C -6,7 C 3,2 km/h (1 Bft)
07.02.2015 08:50 -6,4 C 87 % 1031,1 hPa 0,0 l/m 0,3 km/h (0 Bft) W 269 5 min 0,000 mm 0,0 UV-I 75 W/m -8,2 C -6,4 C 3,2 km/h (1 Bft)
07.02.2015 08:55 -6,0 C 86 % 1031,1 hPa 0,0 l/m 0,0 km/h (0 Bft) W 269 5 min 0,000 mm 0,0 UV-I 99 W/m -8,0 C -6,0 C 1,6 km/h (1 Bft)
07.02.2015 09:00 -5,7 C 84 % 1031,2 hPa 0,0 l/m 0,3 km/h (0 Bft) W 269 5 min 0,000 mm 0,0 UV-I 110 W/m -8,0 C -5,7 C 3,2 km/h (1 Bft)
07.02.2015 09:05 -5,7 C 85 % 1031,2 hPa 0,0 l/m 0,3 km/h (0 Bft) W 269 5 min 0,000 mm 0,0 UV-I 126 W/m -7,8 C -5,7 C 3,2 km/h (1 Bft)
07.02.2015 09:10 -5,2 C 83 % 1031,2 hPa 0,0 l/m 0,0 km/h (0 Bft) W 269 5 min 0,000 mm 0,0 UV-I 139 W/m -7,6 C -5,2 C 0,0 km/h (0 Bft)
07.02.2015 09:15 -5,2 C 82 % 1031,1 hPa 0,0 l/m 0,5 km/h (0 Bft) W 269 5 min 0,000 mm 0,0 UV-I 154 W/m -7,8 C -5,2 C 3,2 km/h (1 Bft)
07.02.2015 09:20 -5,2 C 83 % 1031,1 hPa 0,0 l/m 0,5 km/h (0 Bft) W 269 5 min 0,000 mm 0,0 UV-I 166 W/m -7,6 C -5,2 C 3,2 km/h (1 Bft)
07.02.2015 09:25 -5,2 C 83 % 1031,1 hPa 0,0 l/m 0,5 km/h (0 Bft) W 269 5 min 0,000 mm 0,3 UV-I 178 W/m -7,6 C -5,2 C 4,8 km/h (1 Bft)
07.02.2015 09:30 -4,8 C 82 % 1031,0 hPa 0,0 l/m 0,6 km/h (0 Bft) W 269 5 min 0,000 mm 0,5 UV-I 189 W/m -7,4 C -4,8 C 4,8 km/h (1 Bft)
07.02.2015 09:35 -4,4 C 81 % 1031,0 hPa 0,0 l/m 0,3 km/h (0 Bft) W 269 5 min 0,000 mm 0,5 UV-I 204 W/m -7,2 C -4,4 C 3,2 km/h (1 Bft)
07.02.2015 09:40 -3,6 C 79 % 1031,0 hPa 0,0 l/m 0,0 km/h (0 Bft) W 269 5 min 0,000 mm 0,5 UV-I 212 W/m -6,7 C -3,6 C 1,6 km/h (1 Bft)
07.02.2015 09:45 -3,2 C 77 % 1031,1 hPa 0,0 l/m 0,0 km/h (0 Bft) W 269 5 min 0,000 mm 0,5 UV-I 223 W/m -6,6 C -3,2 C 0,0 km/h (0 Bft)
07.02.2015 09:50 -2,9 C 76 % 1031,2 hPa 0,0 l/m 0,0 km/h (0 Bft) W 269 5 min 0,000 mm 0,6 UV-I 230 W/m -6,5 C -2,9 C 0,0 km/h (0 Bft)
07.02.2015 09:55 -2,7 C 76 % 1031,2 hPa 0,0 l/m 0,0 km/h (0 Bft) W 269 5 min 0,000 mm 0,6 UV-I 237 W/m -6,3 C -2,7 C 1,6 km/h (1 Bft)
07.02.2015 10:00 -2,8 C 75 % 1031,2 hPa 0,0 l/m 0,2 km/h (0 Bft) W 269 5 min 0,051 mm 0,6 UV-I 239 W/m -6,6 C -2,8 C 3,2 km/h (1 Bft)
07.02.2015 10:05 -3,2 C 76 % 1031,3 hPa 0,0 l/m 1,1 km/h (1 Bft) W-SW 248 5 min 0,000 mm 0,6 UV-I 236 W/m -6,8 C -3,2 C 4,8 km/h (1 Bft)
07.02.2015 10:10 -3,3 C 75 % 1031,3 hPa 0,0 l/m 1,2 km/h (1 Bft) W-SW 249 5 min 0,000 mm 0,7 UV-I 248 W/m -7,1 C -3,3 C 4,8 km/h (1 Bft)
07.02.2015 10:15 -2,5 C 75 % 1031,3 hPa 0,0 l/m 0,0 km/h (0 Bft) W-SW 249 5 min 0,000 mm 0,7 UV-I 253 W/m -6,3 C -2,5 C 1,6 km/h (1 Bft)
07.02.2015 10:20 -2,0 C 74 % 1031,4 hPa 0,0 l/m 0,0 km/h (0 Bft) W-SW 249 5 min 0,000 mm 0,7 UV-I 269 W/m -6,0 C -2,0 C 0,0 km/h (0 Bft)
07.02.2015 10:25 -1,2 C 73 % 1031,3 hPa 0,0 l/m 0,0 km/h (0 Bft) W-SW 249 5 min 0,000 mm 0,8 UV-I 274 W/m -5,4 C -1,2 C 1,6 km/h (1 Bft)
07.02.2015 10:30 -1,0 C 71 % 1031,4 hPa 0,0 l/m 0,0 km/h (0 Bft) W-SW 249 5 min 0,000 mm 0,8 UV-I 282 W/m -5,6 C -1,0 C 1,6 km/h (1 Bft)
07.02.2015 10:35 -1,2 C 71 % 1031,4 hPa 0,0 l/m 0,0 km/h (0 Bft) W-SW 249 5 min 0,000 mm 0,8 UV-I 297 W/m -5,8 C -1,2 C 1,6 km/h (1 Bft)
07.02.2015 10:40 -1,1 C 71 % 1031,5 hPa 0,0 l/m 0,0 km/h (0 Bft) W-SW 249 5 min 0,000 mm 0,8 UV-I 293 W/m -5,7 C -1,1 C 0,0 km/h (0 Bft)
07.02.2015 10:45 -0,7 C 69 % 1031,6 hPa 0,0 l/m 0,0 km/h (0 Bft) W-SW 249 5 min 0,000 mm 0,9 UV-I 308 W/m -5,7 C -0,7 C 1,6 km/h (1 Bft)
07.02.2015 10:50 -0,6 C 70 % 1031,6 hPa 0,0 l/m 0,2 km/h (0 Bft) W-SW 249 5 min 0,000 mm 0,9 UV-I 313 W/m -5,4 C -0,6 C 1,6 km/h (1 Bft)
07.02.2015 10:55 -0,3 C 68 % 1031,5 hPa 0,0 l/m 0,5 km/h (0 Bft) W-SW 248 5 min 0,000 mm 0,9 UV-I 323 W/m -5,5 C -0,3 C 4,8 km/h (1 Bft)
07.02.2015 11:00 -0,2 C 68 % 1031,5 hPa 0,0 l/m 0,5 km/h (0 Bft) W-SW 245 5 min 0,000 mm 1,0 UV-I 332 W/m -5,4 C -0,2 C 4,8 km/h (1 Bft)
07.02.2015 11:05 -0,3 C 69 % 1031,5 hPa 0,0 l/m 0,5 km/h (0 Bft) W-SW 245 5 min 0,102 mm 1,0 UV-I 340 W/m -5,3 C -0,3 C 3,2 km/h (1 Bft)
07.02.2015 11:10 0,1 C 68 % 1031,4 hPa 0,0 l/m 1,1 km/h (1 Bft) SW 231 5 min 0,000 mm 1,0 UV-I 348 W/m -5,1 C 0,1 C 4,8 km/h (1 Bft)
07.02.2015 11:15 0,1 C 66 % 1031,5 hPa 0,0 l/m 1,3 km/h (1 Bft) SW 231 5 min 0,000 mm 1,1 UV-I 353 W/m -5,5 C 0,1 C 4,8 km/h (1 Bft)
07.02.2015 11:20 1,0 C 65 % 1031,6 hPa 0,0 l/m 0,7 km/h (0 Bft) SW 217 5 min 0,000 mm 1,1 UV-I 357 W/m -4,8 C 1,0 C 4,8 km/h (1 Bft)
07.02.2015 11:25 1,3 C 62 % 1031,7 hPa 0,0 l/m 2,4 km/h (1 Bft) S-SW 209 5 min 0,000 mm 1,1 UV-I 364 W/m -5,2 C 1,3 C 8,0 km/h (2 Bft)
07.02.2015 11:30 1,3 C 60 % 1031,8 hPa 0,0 l/m 1,6 km/h (1 Bft) S-SW 211 5 min 0,000 mm 1,2 UV-I 372 W/m -5,6 C 1,3 C 6,4 km/h (2 Bft)
07.02.2015 11:35 1,8 C 58 % 1031,9 hPa 0,0 l/m 1,4 km/h (1 Bft) W-SW 258 5 min 0,000 mm 1,2 UV-I 379 W/m -5,6 C 1,8 C 6,4 km/h (2 Bft)
07.02.2015 11:40 1,4 C 60 % 1031,7 hPa 0,0 l/m 3,0 km/h (1 Bft) S-SW 212 5 min 0,000 mm 1,2 UV-I 383 W/m -5,5 C 1,4 C 8,0 km/h (2 Bft)
07.02.2015 11:45 1,6 C 58 % 1031,6 hPa 0,0 l/m 2,0 km/h (1 Bft) W-SW 255 5 min 0,000 mm 1,2 UV-I 388 W/m -5,8 C 1,6 C 6,4 km/h (2 Bft)
07.02.2015 11:50 1,7 C 60 % 1031,5 hPa 0,0 l/m 2,9 km/h (1 Bft) W 277 5 min 0,000 mm 1,3 UV-I 393 W/m -5,2 C 1,7 C 6,4 km/h (2 Bft)
07.02.2015 11:55 1,9 C 58 % 1031,6 hPa 0,0 l/m 2,2 km/h (1 Bft) W-SW 244 5 min 0,000 mm 1,3 UV-I 394 W/m -5,5 C 1,9 C 6,4 km/h (2 Bft)
07.02.2015 12:00 2,1 C 58 % 1031,5 hPa 0,0 l/m 3,0 km/h (1 Bft) S-SW 201 5 min 0,000 mm 1,3 UV-I 400 W/m -5,3 C 2,1 C 8,0 km/h (2 Bft)
07.02.2015 12:05 2,9 C 56 % 1031,5 hPa 0,0 l/m 1,4 km/h (1 Bft) S-SW 198 5 min 0,127 mm 1,3 UV-I 403 W/m -5,0 C 2,9 C 6,4 km/h (2 Bft)
07.02.2015 12:10 3,4 C 56 % 1031,3 hPa 0,0 l/m 0,6 km/h (0 Bft) S-SW 194 5 min 0,000 mm 1,3 UV-I 409 W/m -4,5 C 3,4 C 4,8 km/h (1 Bft)
07.02.2015 12:15 3,6 C 54 % 1031,4 hPa 0,0 l/m 0,3 km/h (0 Bft) S-SW 200 5 min 0,000 mm 1,3 UV-I 413 W/m -4,8 C 3,6 C 3,2 km/h (1 Bft)
07.02.2015 12:20 3,2 C 56 % 1031,1 hPa 0,0 l/m 0,8 km/h (0 Bft) W-SW 239 5 min 0,000 mm 1,3 UV-I 414 W/m -4,7 C 3,2 C 4,8 km/h (1 Bft)
07.02.2015 12:25 3,9 C 54 % 1031,1 hPa 0,0 l/m 0,0 km/h (0 Bft) W-SW 239 5 min 0,000 mm 1,3 UV-I 415 W/m -4,5 C 3,9 C 1,6 km/h (1 Bft)
07.02.2015 12:30 4,7 C 50 % 1030,9 hPa 0,0 l/m 0,1 km/h (0 Bft) W-SW 238 5 min 0,000 mm 1,3 UV-I 419 W/m -4,8 C 4,7 C 1,6 km/h (1 Bft)
07.02.2015 12:35 4,4 C 50 % 1030,8 hPa 0,0 l/m 0,2 km/h (0 Bft) W-SW 238 5 min 0,000 mm 1,3 UV-I 420 W/m -5,1 C 4,4 C 3,2 km/h (1 Bft)
07.02.2015 12:40 4,1 C 51 % 1030,7 hPa 0,0 l/m 0,2 km/h (0 Bft) W-SW 237 5 min 0,000 mm 1,3 UV-I 421 W/m -5,1 C 4,1 C 1,6 km/h (1 Bft)
07.02.2015 12:45 4,3 C 50 % 1030,6 hPa 0,0 l/m 0,1 km/h (0 Bft) S-SW 210 5 min 0,000 mm 1,3 UV-I 420 W/m -5,2 C 4,3 C 3,2 km/h (1 Bft)
07.02.2015 12:50 4,6 C 50 % 1030,4 hPa 0,0 l/m 0,9 km/h (0 Bft) S-SO 147 5 min 0,000 mm 1,4 UV-I 423 W/m -4,9 C 4,6 C 3,2 km/h (1 Bft)
07.02.2015 12:55 4,2 C 48 % 1030,4 hPa 0,0 l/m 1,3 km/h (1 Bft) S-SO 150 5 min 0,000 mm 1,4 UV-I 424 W/m -5,8 C 4,2 C 3,2 km/h (1 Bft)
07.02.2015 13:00 5,3 C 49 % 1030,4 hPa 0,0 l/m 0,0 km/h (0 Bft) S-SO 157 5 min 0,000 mm 1,4 UV-I 425 W/m -4,5 C 5,3 C 1,6 km/h (1 Bft)
07.02.2015 13:05 6,5 C 43 % 1030,3 hPa 0,0 l/m 0,9 km/h (0 Bft) O-NO 63 5 min 0,152 mm 1,3 UV-I 424 W/m -5,2 C 6,5 C 4,8 km/h (1 Bft)
07.02.2015 13:10 6,5 C 42 % 1030,3 hPa 0,0 l/m 1,7 km/h (1 Bft) O-SO 116 5 min 0,000 mm 1,3 UV-I 419 W/m -5,5 C 6,5 C 4,8 km/h (1 Bft)
07.02.2015 13:15 5,1 C 42 % 1030,3 hPa 0,0 l/m 1,5 km/h (1 Bft) O-SO 111 5 min 0,000 mm 1,3 UV-I 415 W/m -6,7 C 5,1 C 4,8 km/h (1 Bft)
07.02.2015 13:20 4,9 C 42 % 1030,1 hPa 0,0 l/m 1,9 km/h (1 Bft) SO 139 5 min 0,000 mm 1,3 UV-I 420 W/m -6,9 C 4,9 C 6,4 km/h (2 Bft)
07.02.2015 13:25 4,8 C 44 % 1029,9 hPa 0,0 l/m 1,9 km/h (1 Bft) S 186 5 min 0,000 mm 1,3 UV-I 418 W/m -6,4 C 4,8 C 6,4 km/h (2 Bft)
07.02.2015 13:30 6,6 C 41 % 1029,8 hPa 0,0 l/m 0,7 km/h (0 Bft) S 186 5 min 0,000 mm 1,3 UV-I 427 W/m -5,7 C 6,6 C 3,2 km/h (1 Bft)
07.02.2015 13:35 5,9 C 38 % 1029,8 hPa 0,0 l/m 2,6 km/h (1 Bft) S-SO 165 5 min 0,000 mm 1,3 UV-I 421 W/m -7,3 C 5,9 C 6,4 km/h (2 Bft)
07.02.2015 13:40 5,2 C 39 % 1029,7 hPa 0,0 l/m 4,3 km/h (1 Bft) O-SO 115 5 min 0,000 mm 1,3 UV-I 418 W/m -7,6 C 5,2 C 11,3 km/h (2 Bft)
07.02.2015 13:45 5,3 C 38 % 1029,8 hPa 0,0 l/m 1,5 km/h (1 Bft) SO 134 5 min 0,000 mm 1,3 UV-I 409 W/m -7,8 C 5,3 C 4,8 km/h (1 Bft)
07.02.2015 13:50 6,1 C 38 % 1029,8 hPa 0,0 l/m 0,8 km/h (0 Bft) S 182 5 min 0,000 mm 1,3 UV-I 409 W/m -7,1 C 6,1 C 6,4 km/h (2 Bft)
07.02.2015 13:55 6,5 C 35 % 1029,8 hPa 0,0 l/m 1,5 km/h (1 Bft) SO 134 5 min 0,000 mm 1,2 UV-I 390 W/m -7,8 C 6,5 C 4,8 km/h (1 Bft)
07.02.2015 14:00 6,3 C 40 % 1029,7 hPa 0,0 l/m 1,7 km/h (1 Bft) S-SW 212 5 min 0,000 mm 1,2 UV-I 367 W/m -6,3 C 6,3 C 6,4 km/h (2 Bft)
07.02.2015 14:05 6,6 C 38 % 1029,7 hPa 0,0 l/m 1,2 km/h (1 Bft) SW 221 5 min 0,178 mm 1,1 UV-I 366 W/m -6,7 C 6,6 C 4,8 km/h (1 Bft)
07.02.2015 14:10 6,7 C 37 % 1029,7 hPa 0,0 l/m 0,1 km/h (0 Bft) SW 221 5 min 0,000 mm 1,1 UV-I 359 W/m -6,9 C 6,7 C 1,6 km/h (1 Bft)
07.02.2015 14:15 7,2 C 36 % 1029,6 hPa 0,0 l/m 0,1 km/h (0 Bft) S 181 5 min 0,000 mm 1,1 UV-I 334 W/m -6,8 C 7,2 C 3,2 km/h (1 Bft)
07.02.2015 14:20 6,4 C 38 % 1029,6 hPa 0,0 l/m 0,7 km/h (0 Bft) S 190 5 min 0,000 mm 1,0 UV-I 352 W/m -6,9 C 6,4 C 3,2 km/h (1 Bft)
07.02.2015 14:25 6,7 C 37 % 1029,5 hPa 0,0 l/m 0,4 km/h (0 Bft) S 190 5 min 0,000 mm 1,0 UV-I 309 W/m -6,9 C 6,7 C 3,2 km/h (1 Bft)
07.02.2015 14:30 6,8 C 38 % 1029,3 hPa 0,0 l/m 0,6 km/h (0 Bft) SW 218 5 min 0,000 mm 1,0 UV-I 319 W/m -6,5 C 6,8 C 4,8 km/h (1 Bft)
07.02.2015 14:35 6,8 C 39 % 1029,2 hPa 0,0 l/m 1,2 km/h (1 Bft) S-SW 212 5 min 0,000 mm 0,9 UV-I 301 W/m -6,2 C 6,8 C 8,0 km/h (2 Bft)
07.02.2015 14:40 7,3 C 42 % 1029,0 hPa 0,0 l/m 0,6 km/h (0 Bft) S-SW 198 5 min 0,000 mm 0,8 UV-I 266 W/m -4,7 C 7,3 C 6,4 km/h (2 Bft)
07.02.2015 14:45 6,7 C 39 % 1028,8 hPa 0,0 l/m 1,9 km/h (1 Bft) SW 217 5 min 0,000 mm 0,8 UV-I 255 W/m -6,3 C 6,7 C 8,0 km/h (2 Bft)
07.02.2015 14:50 6,3 C 39 % 1028,6 hPa 0,0 l/m 2,6 km/h (1 Bft) SW 236 5 min 0,000 mm 0,8 UV-I 272 W/m -6,6 C 6,3 C 8,0 km/h (2 Bft)
07.02.2015 14:55 6,4 C 39 % 1028,6 hPa 0,0 l/m 2,8 km/h (1 Bft) W-SW 250 5 min 0,000 mm 0,8 UV-I 294 W/m -6,5 C 6,4 C 8,0 km/h (2 Bft)
07.02.2015 15:00 6,6 C 39 % 1028,5 hPa 0,0 l/m 2,2 km/h (1 Bft) S 173 5 min 0,000 mm 0,8 UV-I 296 W/m -6,3 C 6,6 C 6,4 km/h (2 Bft)
07.02.2015 15:05 7,2 C 40 % 1028,5 hPa 0,0 l/m 1,4 km/h (1 Bft) S-SO 167 5 min 0,152 mm 0,8 UV-I 282 W/m -5,5 C 7,2 C 6,4 km/h (2 Bft)
07.02.2015 15:10 7,1 C 40 % 1028,5 hPa 0,0 l/m 2,9 km/h (1 Bft) W-SW 246 5 min 0,000 mm 0,7 UV-I 271 W/m -5,6 C 7,1 C 12,9 km/h (3 Bft)
07.02.2015 15:15 6,6 C 42 % 1028,6 hPa 0,0 l/m 3,7 km/h (1 Bft) W 265 5 min 0,000 mm 0,7 UV-I 256 W/m -5,4 C 6,6 C 8,0 km/h (2 Bft)
07.02.2015 15:20 6,3 C 43 % 1028,5 hPa 0,0 l/m 5,1 km/h (1 Bft) W-SW 248 5 min 0,000 mm 0,7 UV-I 255 W/m -5,3 C 6,3 C 14,5 km/h (3 Bft)
07.02.2015 15:25 6,9 C 42 % 1028,3 hPa 0,0 l/m 2,3 km/h (1 Bft) W-NW 286 5 min 0,000 mm 0,6 UV-I 258 W/m -5,1 C 6,9 C 8,0 km/h (2 Bft)
07.02.2015 15:30 6,6 C 42 % 1028,1 hPa 0,0 l/m 5,4 km/h (1 Bft) W-NW 283 5 min 0,000 mm 0,6 UV-I 248 W/m -5,4 C 6,6 C 11,3 km/h (2 Bft)
07.02.2015 15:35 6,5 C 44 % 1028,1 hPa 0,0 l/m 5,7 km/h (1 Bft) N-NW 331 5 min 0,000 mm 0,6 UV-I 246 W/m -4,9 C 6,5 C 11,3 km/h (2 Bft)
07.02.2015 15:40 6,4 C 45 % 1028,3 hPa 0,0 l/m 4,3 km/h (1 Bft) W-NW 298 5 min 0,000 mm 0,5 UV-I 234 W/m -4,6 C 6,4 C 8,0 km/h (2 Bft)
07.02.2015 15:45 6,8 C 44 % 1028,6 hPa 0,0 l/m 4,1 km/h (1 Bft) NW 309 5 min 0,000 mm 0,5 UV-I 223 W/m -4,6 C 6,8 C 12,9 km/h (3 Bft)
07.02.2015 15:50 6,6 C 44 % 1029,0 hPa 0,0 l/m 6,3 km/h (2 Bft) NW 306 5 min 0,000 mm 0,5 UV-I 124 W/m -4,8 C 6,6 C 14,5 km/h (3 Bft)
07.02.2015 15:55 6,3 C 46 % 1028,9 hPa 0,0 l/m 2,4 km/h (1 Bft) NW 310 5 min 0,000 mm 0,5 UV-I 156 W/m -4,5 C 6,3 C 14,5 km/h (3 Bft)
07.02.2015 16:00 6,1 C 46 % 1028,9 hPa 0,0 l/m 5,6 km/h (1 Bft) NW 317 5 min 0,000 mm 0,2 UV-I 181 W/m -4,6 C 6,1 C 12,9 km/h (3 Bft)
07.02.2015 16:05 5,8 C 46 % 1028,9 hPa 0,0 l/m 8,4 km/h (2 Bft) N 5 5 min 0,127 mm 0,0 UV-I 173 W/m -4,9 C 4,1 C 16,1 km/h (3 Bft)
07.02.2015 16:10 6,2 C 48 % 1029,0 hPa 0,0 l/m 0,9 km/h (0 Bft) N 351 5 min 0,000 mm 0,0 UV-I 152 W/m -4,0 C 6,2 C 8,0 km/h (2 Bft)
07.02.2015 16:15 6,3 C 47 % 1029,1 hPa 0,0 l/m 0,4 km/h (0 Bft) N 350 5 min 0,000 mm 0,0 UV-I 143 W/m -4,2 C 6,3 C 3,2 km/h (1 Bft)
07.02.2015 16:20 6,0 C 48 % 1029,0 hPa 0,0 l/m 0,6 km/h (0 Bft) N-NO 17 5 min 0,000 mm 0,0 UV-I 129 W/m -4,2 C 6,0 C 4,8 km/h (1 Bft)
07.02.2015 16:25 5,7 C 50 % 1029,0 hPa 0,0 l/m 3,2 km/h (1 Bft) N 11 5 min 0,000 mm 0,0 UV-I 110 W/m -3,9 C 5,7 C 9,7 km/h (2 Bft)
07.02.2015 16:30 5,3 C 52 % 1028,7 hPa 0,0 l/m 1,4 km/h (1 Bft) NW 325 0 min 0,000 mm 0,0 UV-I 56 W/m -3,7 C 5,3 C 6,4 km/h (2 Bft)
07.02.2015 16:35 5,2 C 52 % 1028,7 hPa 0,0 l/m 1,8 km/h (1 Bft) NW 316 5 min 0,000 mm 0,0 UV-I 92 W/m -3,8 C 5,2 C 9,7 km/h (2 Bft)
07.02.2015 16:40 5,0 C 55 % 1028,9 hPa 0,0 l/m 2,8 km/h (1 Bft) N 355 5 min 0,000 mm 0,0 UV-I 80 W/m -3,3 C 5,0 C 9,7 km/h (2 Bft)
07.02.2015 16:45 4,8 C 55 % 1028,9 hPa 0,0 l/m 2,9 km/h (1 Bft) NW 306 5 min 0,000 mm 0,0 UV-I 66 W/m -3,5 C 4,8 C 12,9 km/h (3 Bft)
07.02.2015 16:50 4,7 C 56 % 1029,0 hPa 0,0 l/m 0,5 km/h (0 Bft) N 5 5 min 0,000 mm 0,0 UV-I 56 W/m -3,3 C 4,7 C 3,2 km/h (1 Bft)
07.02.2015 16:55 4,7 C 57 % 1029,0 hPa 0,0 l/m 0,4 km/h (0 Bft) N 5 5 min 0,000 mm 0,0 UV-I 45 W/m -3,1 C 4,7 C 4,8 km/h (1 Bft)
07.02.2015 17:00 4,4 C 58 % 1028,9 hPa 0,0 l/m 0,1 km/h (0 Bft) N 355 5 min 0,000 mm 0,0 UV-I 39 W/m -3,1 C 4,4 C 4,8 km/h (1 Bft)
07.02.2015 17:05 4,2 C 59 % 1028,9 hPa 0,0 l/m 0,2 km/h (0 Bft) N 5 5 min 0,051 mm 0,0 UV-I 35 W/m -3,1 C 4,2 C 3,2 km/h (1 Bft)
07.02.2015 17:10 4,2 C 62 % 1028,8 hPa 0,0 l/m 1,0 km/h (0 Bft) N-NW 334 5 min 0,000 mm 0,0 UV-I 20 W/m -2,4 C 4,2 C 6,4 km/h (2 Bft)
07.02.2015 17:15 4,1 C 63 % 1028,6 hPa 0,0 l/m 0,1 km/h (0 Bft) N-NW 334 5 min 0,000 mm 0,0 UV-I 12 W/m -2,3 C 4,1 C 1,6 km/h (1 Bft)
07.02.2015 17:20 4,1 C 63 % 1028,5 hPa 0,0 l/m 0,0 km/h (0 Bft) N-NW 334 0 min 0,000 mm 0,0 UV-I 7 W/m -2,3 C 4,1 C 1,6 km/h (1 Bft)
07.02.2015 17:25 3,7 C 64 % 1028,5 hPa 0,0 l/m 1,7 km/h (1 Bft) W-NW 286 0 min 0,000 mm 0,0 UV-I 5 W/m -2,5 C 3,7 C 4,8 km/h (1 Bft)
07.02.2015 17:30 3,4 C 67 % 1028,5 hPa 0,0 l/m 1,7 km/h (1 Bft) W-NW 303 0 min 0,000 mm 0,0 UV-I 0 W/m -2,1 C 3,4 C 8,0 km/h (2 Bft)
07.02.2015 17:35 3,2 C 70 % 1028,5 hPa 0,0 l/m 1,4 km/h (1 Bft) W-NW 298 0 min 0,000 mm 0,0 UV-I 0 W/m -1,7 C 3,2 C 8,0 km/h (2 Bft)
07.02.2015 17:40 3,1 C 72 % 1028,6 hPa 0,0 l/m 0,2 km/h (0 Bft) NW 325 0 min 0,000 mm 0,0 UV-I 0 W/m -1,4 C 3,1 C 3,2 km/h (1 Bft)
07.02.2015 17:45 2,9 C 73 % 1028,4 hPa 0,0 l/m 1,0 km/h (0 Bft) W 275 0 min 0,000 mm 0,0 UV-I 0 W/m -1,5 C 2,9 C 8,0 km/h (2 Bft)
07.02.2015 17:50 2,8 C 74 % 1028,5 hPa 0,0 l/m 0,9 km/h (0 Bft) W-SW 258 0 min 0,000 mm 0,0 UV-I 0 W/m -1,4 C 2,8 C 4,8 km/h (1 Bft)
07.02.2015 17:55 2,7 C 75 % 1028,8 hPa 0,0 l/m 2,1 km/h (1 Bft) W-NW 292 0 min 0,000 mm 0,0 UV-I 0 W/m -1,3 C 2,7 C 9,7 km/h (2 Bft)
07.02.2015 18:00 2,7 C 76 % 1028,6 hPa 0,0 l/m 0,7 km/h (0 Bft) W-NW 285 0 min 0,000 mm 0,0 UV-I 0 W/m -1,1 C 2,7 C 4,8 km/h (1 Bft)
07.02.2015 18:05 2,7 C 76 % 1028,5 hPa 0,0 l/m 0,0 km/h (0 Bft) W-NW 285 0 min 0,000 mm 0,0 UV-I 0 W/m -1,1 C 2,7 C 1,6 km/h (1 Bft)
07.02.2015 18:10 2,7 C 77 % 1028,5 hPa 0,0 l/m 0,3 km/h (0 Bft) W-NW 285 0 min 0,000 mm 0,0 UV-I 0 W/m -0,9 C 2,7 C 3,2 km/h (1 Bft)
07.02.2015 18:15 2,6 C 77 % 1028,6 hPa 0,0 l/m 0,2 km/h (0 Bft) W-NW 285 0 min 0,000 mm 0,0 UV-I 0 W/m -1,0 C 2,6 C 1,6 km/h (1 Bft)
07.02.2015 18:20 2,6 C 77 % 1028,7 hPa 0,0 l/m 0,3 km/h (0 Bft) W-NW 285 0 min 0,000 mm 0,0 UV-I 0 W/m -1,0 C 2,6 C 3,2 km/h (1 Bft)
07.02.2015 18:25 2,5 C 78 % 1028,7 hPa 0,0 l/m 0,0 km/h (0 Bft) W-NW 285 0 min 0,000 mm 0,0 UV-I 0 W/m -0,9 C 2,5 C 1,6 km/h (1 Bft)
07.02.2015 18:30 2,5 C 78 % 1028,5 hPa 0,0 l/m 1,0 km/h (0 Bft) W-SW 238 0 min 0,000 mm 0,0 UV-I 0 W/m -0,9 C 2,5 C 6,4 km/h (2 Bft)
07.02.2015 18:35 2,5 C 78 % 1029,0 hPa 0,0 l/m 0,1 km/h (0 Bft) W-SW 239 0 min 0,000 mm 0,0 UV-I 0 W/m -0,9 C 2,5 C 1,6 km/h (1 Bft)
07.02.2015 18:40 2,4 C 78 % 1028,9 hPa 0,0 l/m 1,3 km/h (1 Bft) W-SW 248 0 min 0,000 mm 0,0 UV-I 0 W/m -1,0 C 2,4 C 9,7 km/h (2 Bft)
07.02.2015 18:45 2,4 C 80 % 1029,0 hPa 0,0 l/m 0,5 km/h (0 Bft) W-NW 286 0 min 0,000 mm 0,0 UV-I 0 W/m -0,7 C 2,4 C 3,2 km/h (1 Bft)
07.02.2015 18:50 2,5 C 80 % 1028,8 hPa 0,0 l/m 0,6 km/h (0 Bft) W-NW 295 0 min 0,000 mm 0,0 UV-I 0 W/m -0,6 C 2,5 C 3,2 km/h (1 Bft)
07.02.2015 18:55 2,5 C 80 % 1028,6 hPa 0,0 l/m 0,3 km/h (0 Bft) W-NW 303 0 min 0,000 mm 0,0 UV-I 0 W/m -0,6 C 2,5 C 6,4 km/h (2 Bft)
07.02.2015 19:00 2,6 C 80 % 1028,6 hPa 0,0 l/m 0,8 km/h (0 Bft) W-SW 242 0 min 0,000 mm 0,0 UV-I 0 W/m -0,5 C 2,6 C 4,8 km/h (1 Bft)
07.02.2015 19:05 2,6 C 81 % 1028,3 hPa 0,0 l/m 1,2 km/h (1 Bft) W-NW 284 0 min 0,000 mm 0,0 UV-I 0 W/m -0,3 C 2,6 C 6,4 km/h (2 Bft)
07.02.2015 19:10 2,5 C 81 % 1028,1 hPa 0,0 l/m 0,5 km/h (0 Bft) W 263 0 min 0,000 mm 0,0 UV-I 0 W/m -0,4 C 2,5 C 6,4 km/h (2 Bft)
07.02.2015 19:15 2,5 C 81 % 1028,0 hPa 0,0 l/m 0,8 km/h (0 Bft) W 265 0 min 0,000 mm 0,0 UV-I 0 W/m -0,4 C 2,5 C 3,2 km/h (1 Bft)
07.02.2015 19:20 2,4 C 81 % 1028,1 hPa 0,0 l/m 2,2 km/h (1 Bft) W-SW 249 0 min 0,000 mm 0,0 UV-I 0 W/m -0,5 C 2,4 C 6,4 km/h (2 Bft)
07.02.2015 19:25 2,3 C 82 % 1028,0 hPa 0,0 l/m 2,5 km/h (1 Bft) W 267 0 min 0,000 mm 0,0 UV-I 0 W/m -0,4 C 2,3 C 6,4 km/h (2 Bft)
07.02.2015 19:30 2,3 C 82 % 1027,9 hPa 0,0 l/m 3,2 km/h (1 Bft) W-SW 257 0 min 0,000 mm 0,0 UV-I 0 W/m -0,4 C 2,3 C 6,4 km/h (2 Bft)
07.02.2015 19:35 2,2 C 83 % 1027,9 hPa 0,0 l/m 1,7 km/h (1 Bft) W-SW 255 0 min 0,000 mm 0,0 UV-I 0 W/m -0,4 C 2,2 C 6,4 km/h (2 Bft)
07.02.2015 19:40 2,2 C 83 % 1028,0 hPa 0,0 l/m 2,8 km/h (1 Bft) W-NW 284 0 min 0,000 mm 0,0 UV-I 0 W/m -0,4 C 2,2 C 6,4 km/h (2 Bft)
07.02.2015 19:45 2,2 C 84 % 1027,9 hPa 0,0 l/m 3,4 km/h (1 Bft) W-SW 253 0 min 0,000 mm 0,0 UV-I 0 W/m -0,2 C 2,2 C 6,4 km/h (2 Bft)
07.02.2015 19:50 2,2 C 84 % 1027,6 hPa 0,0 l/m 2,6 km/h (1 Bft) W-NW 288 0 min 0,000 mm 0,0 UV-I 0 W/m -0,2 C 2,2 C 6,4 km/h (2 Bft)
07.02.2015 19:55 2,2 C 84 % 1027,8 hPa 0,0 l/m 3,0 km/h (1 Bft) W-NW 300 0 min 0,000 mm 0,0 UV-I 0 W/m -0,2 C 2,2 C 6,4 km/h (2 Bft)
07.02.2015 20:00 2,2 C 84 % 1027,9 hPa 0,0 l/m 3,8 km/h (1 Bft) W-NW 289 0 min 0,000 mm 0,0 UV-I 0 W/m -0,2 C 2,2 C 6,4 km/h (2 Bft)
07.02.2015 20:05 2,2 C 84 % 1027,6 hPa 0,0 l/m 1,7 km/h (1 Bft) W-NW 301 0 min 0,000 mm 0,0 UV-I 0 W/m -0,2 C 2,2 C 4,8 km/h (1 Bft)
07.02.2015 20:10 2,2 C 85 % 1027,6 hPa 0,0 l/m 2,4 km/h (1 Bft) W-SW 255 0 min 0,000 mm 0,0 UV-I 0 W/m -0,1 C 2,2 C 6,4 km/h (2 Bft)
07.02.2015 20:15 2,2 C 85 % 1027,6 hPa 0,0 l/m 3,7 km/h (1 Bft) W 275 0 min 0,000 mm 0,0 UV-I 0 W/m -0,1 C 2,2 C 8,0 km/h (2 Bft)
07.02.2015 20:20 2,2 C 86 % 1027,6 hPa 0,0 l/m 2,9 km/h (1 Bft) W-SW 250 0 min 0,000 mm 0,0 UV-I 0 W/m 0,1 C 2,2 C 8,0 km/h (2 Bft)
07.02.2015 20:25 2,2 C 86 % 1027,1 hPa 0,0 l/m 1,8 km/h (1 Bft) W-SW 255 0 min 0,000 mm 0,0 UV-I 0 W/m 0,1 C 2,2 C 6,4 km/h (2 Bft)
07.02.2015 20:30 2,2 C 86 % 1026,9 hPa 0,0 l/m 1,4 km/h (1 Bft) W 279 0 min 0,000 mm 0,0 UV-I 0 W/m 0,1 C 2,2 C 6,4 km/h (2 Bft)
07.02.2015 20:35 2,2 C 86 % 1027,2 hPa 0,0 l/m 2,6 km/h (1 Bft) W-NW 298 0 min 0,000 mm 0,0 UV-I 0 W/m 0,1 C 2,2 C 6,4 km/h (2 Bft)
07.02.2015 20:40 2,3 C 86 % 1027,4 hPa 0,0 l/m 4,0 km/h (1 Bft) W-SW 254 0 min 0,000 mm 0,0 UV-I 0 W/m 0,2 C 2,3 C 9,7 km/h (2 Bft)
07.02.2015 20:45 2,3 C 86 % 1027,2 hPa 0,0 l/m 3,0 km/h (1 Bft) W-SW 251 0 min 0,000 mm 0,0 UV-I 0 W/m 0,2 C 2,3 C 6,4 km/h (2 Bft)
07.02.2015 20:50 2,3 C 86 % 1027,3 hPa 0,0 l/m 1,5 km/h (1 Bft) W-SW 254 0 min 0,000 mm 0,0 UV-I 0 W/m 0,2 C 2,3 C 8,0 km/h (2 Bft)
07.02.2015 20:55 2,3 C 86 % 1027,2 hPa 0,0 l/m 2,1 km/h (1 Bft) W-SW 239 0 min 0,000 mm 0,0 UV-I 0 W/m 0,2 C 2,3 C 8,0 km/h (2 Bft)
07.02.2015 21:00 2,2 C 87 % 1027,1 hPa 0,0 l/m 2,2 km/h (1 Bft) W 276 0 min 0,000 mm 0,0 UV-I 0 W/m 0,3 C 2,2 C 8,0 km/h (2 Bft)
07.02.2015 21:05 2,3 C 87 % 1027,1 hPa 0,0 l/m 3,1 km/h (1 Bft) W 273 0 min 0,000 mm 0,0 UV-I 0 W/m 0,4 C 2,3 C 8,0 km/h (2 Bft)
07.02.2015 21:10 2,3 C 87 % 1027,3 hPa 0,0 l/m 2,0 km/h (1 Bft) W 260 0 min 0,000 mm 0,0 UV-I 0 W/m 0,4 C 2,3 C 6,4 km/h (2 Bft)
07.02.2015 21:15 2,4 C 87 % 1027,2 hPa 0,0 l/m 2,0 km/h (1 Bft) W-NW 283 0 min 0,000 mm 0,0 UV-I 0 W/m 0,5 C 2,4 C 6,4 km/h (2 Bft)
07.02.2015 21:20 2,4 C 87 % 1027,2 hPa 0,0 l/m 2,9 km/h (1 Bft) W 264 0 min 0,000 mm 0,0 UV-I 0 W/m 0,5 C 2,4 C 6,4 km/h (2 Bft)
07.02.2015 21:25 2,3 C 88 % 1027,3 hPa 0,0 l/m 1,7 km/h (1 Bft) W-NW 289 0 min 0,000 mm 0,0 UV-I 0 W/m 0,5 C 2,3 C 4,8 km/h (1 Bft)
07.02.2015 21:30 2,3 C 88 % 1027,3 hPa 0,0 l/m 0,4 km/h (0 Bft) W-NW 285 0 min 0,000 mm 0,0 UV-I 0 W/m 0,5 C 2,3 C 3,2 km/h (1 Bft)
07.02.2015 21:35 2,3 C 89 % 1027,4 hPa 0,0 l/m 0,6 km/h (0 Bft) W 281 0 min 0,000 mm 0,0 UV-I 0 W/m 0,7 C 2,3 C 3,2 km/h (1 Bft)
07.02.2015 21:40 2,3 C 89 % 1027,5 hPa 0,0 l/m 0,5 km/h (0 Bft) W 280 0 min 0,000 mm 0,0 UV-I 0 W/m 0,7 C 2,3 C 3,2 km/h (1 Bft)
07.02.2015 21:45 2,3 C 90 % 1027,3 hPa 0,0 l/m 0,9 km/h (0 Bft) W 259 0 min 0,000 mm 0,0 UV-I 0 W/m 0,8 C 2,3 C 6,4 km/h (2 Bft)
07.02.2015 21:50 2,2 C 90 % 1027,0 hPa 0,0 l/m 3,6 km/h (1 Bft) W-NW 287 0 min 0,000 mm 0,0 UV-I 0 W/m 0,7 C 2,2 C 8,0 km/h (2 Bft)
07.02.2015 21:55 2,1 C 91 % 1026,9 hPa 0,0 l/m 4,4 km/h (1 Bft) W 267 0 min 0,000 mm 0,0 UV-I 0 W/m 0,8 C 2,1 C 9,7 km/h (2 Bft)
07.02.2015 22:00 2,1 C 91 % 1026,8 hPa 0,0 l/m 4,2 km/h (1 Bft) W 270 0 min 0,000 mm 0,0 UV-I 0 W/m 0,8 C 2,1 C 8,0 km/h (2 Bft)
07.02.2015 22:05 2,0 C 92 % 1026,5 hPa 0,0 l/m 3,4 km/h (1 Bft) W-NW 299 0 min 0,000 mm 0,0 UV-I 0 W/m 0,8 C 2,0 C 8,0 km/h (2 Bft)
07.02.2015 22:10 1,9 C 92 % 1026,6 hPa 0,0 l/m 3,6 km/h (1 Bft) W 263 0 min 0,000 mm 0,0 UV-I 0 W/m 0,7 C 1,9 C 8,0 km/h (2 Bft)
07.02.2015 22:15 1,9 C 92 % 1026,7 hPa 0,0 l/m 3,7 km/h (1 Bft) W 267 0 min 0,000 mm 0,0 UV-I 0 W/m 0,7 C 1,9 C 8,0 km/h (2 Bft)
07.02.2015 22:20 1,9 C 92 % 1026,7 hPa 0,0 l/m 3,6 km/h (1 Bft) W-SW 242 0 min 0,000 mm 0,0 UV-I 0 W/m 0,7 C 1,9 C 6,4 km/h (2 Bft)
07.02.2015 22:25 1,9 C 92 % 1026,8 hPa 0,0 l/m 3,3 km/h (1 Bft) W 265 0 min 0,000 mm 0,0 UV-I 0 W/m 0,7 C 1,9 C 8,0 km/h (2 Bft)
07.02.2015 22:30 1,9 C 92 % 1026,5 hPa 0,0 l/m 1,4 km/h (1 Bft) W 263 0 min 0,000 mm 0,0 UV-I 0 W/m 0,7 C 1,9 C 4,8 km/h (1 Bft)
07.02.2015 22:35 1,9 C 92 % 1026,3 hPa 0,0 l/m 2,6 km/h (1 Bft) W-NW 287 0 min 0,000 mm 0,0 UV-I 0 W/m 0,7 C 1,9 C 6,4 km/h (2 Bft)
07.02.2015 22:40 1,9 C 92 % 1026,3 hPa 0,0 l/m 1,9 km/h (1 Bft) W 277 0 min 0,000 mm 0,0 UV-I 0 W/m 0,7 C 1,9 C 4,8 km/h (1 Bft)
07.02.2015 22:45 1,9 C 92 % 1026,4 hPa 0,0 l/m 3,0 km/h (1 Bft) W 265 0 min 0,000 mm 0,0 UV-I 0 W/m 0,7 C 1,9 C 6,4 km/h (2 Bft)
07.02.2015 22:50 1,9 C 92 % 1026,4 hPa 0,0 l/m 2,9 km/h (1 Bft) W-NW 283 0 min 0,000 mm 0,0 UV-I 0 W/m 0,7 C 1,9 C 8,0 km/h (2 Bft)
07.02.2015 22:55 2,0 C 92 % 1026,1 hPa 0,0 l/m 4,0 km/h (1 Bft) W-NW 292 0 min 0,000 mm 0,0 UV-I 0 W/m 0,8 C 2,0 C 8,0 km/h (2 Bft)
07.02.2015 23:00 2,0 C 93 % 1026,1 hPa 0,0 l/m 5,4 km/h (1 Bft) W 280 0 min 0,000 mm 0,0 UV-I 0 W/m 1,0 C 2,0 C 9,7 km/h (2 Bft)
07.02.2015 23:05 2,0 C 93 % 1026,1 hPa 0,0 l/m 3,9 km/h (1 Bft) W-NW 289 0 min 0,000 mm 0,0 UV-I 0 W/m 1,0 C 2,0 C 6,4 km/h (2 Bft)
07.02.2015 23:10 2,1 C 93 % 1025,9 hPa 0,0 l/m 5,0 km/h (1 Bft) W 261 0 min 0,000 mm 0,0 UV-I 0 W/m 1,1 C 2,1 C 9,7 km/h (2 Bft)
07.02.2015 23:15 2,1 C 93 % 1025,9 hPa 0,0 l/m 4,4 km/h (1 Bft) W 279 0 min 0,000 mm 0,0 UV-I 0 W/m 1,1 C 2,1 C 9,7 km/h (2 Bft)
07.02.2015 23:20 2,1 C 93 % 1026,0 hPa 0,0 l/m 3,2 km/h (1 Bft) W-NW 287 0 min 0,000 mm 0,0 UV-I 0 W/m 1,1 C 2,1 C 6,4 km/h (2 Bft)
07.02.2015 23:25 2,1 C 93 % 1025,6 hPa 0,0 l/m 2,7 km/h (1 Bft) W 267 0 min 0,000 mm 0,0 UV-I 0 W/m 1,1 C 2,1 C 4,8 km/h (1 Bft)
07.02.2015 23:30 2,0 C 93 % 1025,7 hPa 0,0 l/m 4,3 km/h (1 Bft) NW 309 0 min 0,000 mm 0,0 UV-I 0 W/m 1,0 C 2,0 C 8,0 km/h (2 Bft)
07.02.2015 23:35 1,9 C 93 % 1025,7 hPa 0,0 l/m 2,7 km/h (1 Bft) W-SW 257 0 min 0,000 mm 0,0 UV-I 0 W/m 0,9 C 1,9 C 6,4 km/h (2 Bft)
07.02.2015 23:40 2,0 C 93 % 1025,8 hPa 0,0 l/m 2,1 km/h (1 Bft) W-NW 289 0 min 0,000 mm 0,0 UV-I 0 W/m 1,0 C 2,0 C 4,8 km/h (1 Bft)
07.02.2015 23:45 2,0 C 93 % 1025,7 hPa 0,0 l/m 1,9 km/h (1 Bft) NW 308 0 min 0,000 mm 0,0 UV-I 0 W/m 1,0 C 2,0 C 6,4 km/h (2 Bft)
07.02.2015 23:50 2,0 C 93 % 1025,6 hPa 0,0 l/m 1,5 km/h (1 Bft) W 275 0 min 0,000 mm 0,0 UV-I 0 W/m 1,0 C 2,0 C 6,4 km/h (2 Bft)
07.02.2015 23:55 2,0 C 93 % 1025,5 hPa 0,0 l/m 1,8 km/h (1 Bft) W-NW 286 0 min 0,000 mm 0,0 UV-I 0 W/m 1,0 C 2,0 C 4,8 km/h (1 Bft)
_ Min-Zeit 07:50 13:55 23:55 - 03:30 - - - - - - 07:45 07:40 04:20
Minimum _ -7,9 C 35 % 1025,5 hPa - 0,0 km/h (0 Bft) - - - - - - -9,6 C -7,8 C 0,0 km/h (0 Bft)
_ Max-Zeit 14:40 23:00 11:35 00:00 00:20 - - 08:40 14:05 12:50 13:30 23:10 14:40 00:30
Maximum _ 7,3 C 93 % 1031,9 hPa 0,0 l/m 9,4 km/h
NO (2 Bft)
- - 5 min 0,178 mm 1,4 UV-I 427 W/m 1,1 C 7,3 C 24,1 km/h
O-NO (4 Bft)
Durchschnitt _ -0,4 C 73 % 1029,5 hPa #0,0 l/m 1,6 km/h (1 Bft) W-NW - #8:35 h #0,965 mm 1,0 UV-I 247 W/m -5,0 C -0,4 C 5,4 km/h (1 Bft)